Regional Weather Roundup
Issued by NWS State College, PA

Home | Current Version | Previous Version | Text Only | Print | Product List | Glossary On
Versions: 1 2 3 4 5 6 7 8 9 10 11 12 13 14 15 16 17 18 19 20 21 22 23 24 25 26 27 28 29 30 31 32 33 34 35 36 37 38 39 40 41 42 43 44 45 46 47 48 49 50
000
ASUS41 KCTP 260210
RWRCTP

REGIONAL WEATHER ROUNDUP
NATIONAL WEATHER SERVICE STATE COLLEGE PA
1000 PM EDT FRI MAY 25 2018

Note: "fair" indicates few or no clouds below 12,000 feet with no
significant weather and/or obstructions to visibility.

* = STATION THAT DOES NOT REPORT PRECIPITATION /E.G. RAIN...SNOW...ETC/
    THUNDER OR FOG.

PAZ002>004-007>009-013>016-020>023-029>032-260300-
WESTERN PENNSYLVANIA

CITY           SKY/WX    TMP DP  RH WIND       PRES   REMARKS
ERIE           FAIR      67  52  58 S5        29.85F
MEADVILLE      FAIR      72  48  42 CALM      29.89S
FRANKLIN*      FAIR      71  53  52 SW3       29.91S
NEW CASTLE     FAIR      65  57  75 CALM      29.89
BEAVER COUNTY  NOT AVBL
BUTLER*        FAIR      67  56  67 CALM      29.91R
PITTSBURGH INT FAIR      73  60  63 CALM      29.89R
PITTSBURGH     FAIR      77  60  55 SW5       29.89S
INDIANA*       CLEAR     70  63  78 CALM      29.94R
LATROBE        CLEAR     73  64  73 S3        29.90S
WASHINGTON CO* FAIR      71  65  81 CALM      29.93R
$$

PAZ004>006-010>012-017>019-024>028-033>037-041-042-045-046-049>053-260300-
CENTRAL PENNSYLVANIA

CITY           SKY/WX    TMP DP  RH WIND       PRES   REMARKS
BRADFORD       FAIR      61  48  62 CALM      29.92S
DUBOIS         FAIR      68  58  70 SW3       29.91R
CLEARFIELD     FAIR      68  59  73 N5        29.91R
JOHNSTOWN      FAIR      73  60  63 W3        29.95S
ALTOONA        FAIR      76  60  57 S3        29.92R
STATE COLLEGE  CLEAR     72  59  64 CALM      29.89S
WILLIAMSPORT   FAIR      72  56  57 N3        29.84R
SELINSGROVE    MOCLDY    71  64  78 CALM      29.86R
FT INDIANTOWN  FAIR      70  64  82 CALM      29.88R
CAPITAL CITY   MOCLDY    82  62  50 S9        29.87R
HARRISBURG     FAIR      80  62  54 SW7       29.87R
YORK           MOCLDY    77  64  64 S5        29.89R
$$

PAZ038>040-043-044-047-048-054-055-060>062-067>071-260300-
EASTERN PENNSYLVANIA

CITY           SKY/WX    TMP DP  RH WIND       PRES   REMARKS
SCRANTON       FAIR      75  59  57 SW5       29.87R
MOUNT POCONO   FAIR      70  60  70 SW8       29.92S
ALLENTOWN      FAIR      77  61  57 SW13      29.87R
QUAKERTOWN*    CLEAR     75  64  69 CALM      29.89S
READING        FAIR      76  66  71 S7        29.87R
LANCASTER      FAIR      76  66  71 S7        29.88R
COATESVILLE    FAIR      73  66  78 VRB5      29.92R
POTTSTOWN      FAIR      75  63  66 VRB5      29.90R
BLUE BELL      FAIR      73  64  73 SW5       29.90S
DOYLESTOWN     FAIR      75  62  64 S5        29.88R
WILLOW GROVE   NOT AVBL
NORTH PHILA    FAIR      80  64  58 SW10      29.90R
PHILADELPHIA   FAIR      76  64  66 S10       29.89R
$$




USA.gov is the U.S. government's official web portal to all federal, state and local government web resources and services.